GW3507 Weather Reports


time (UTC)temp
F
wind
direction
speed
knots
gust
knots
rain 1hr
in
rain 24hr
in
rain mn
in
humidity
%
barometer
mb
20260503193204 61 232 5.2 13.0 0.00 0.00 0.00 36 1008.8
20260503192645 62 226 2.6 9.6 0.00 0.00 0.00 37 1008.8
20260503192143 62 207 3.5 13.9 0.00 0.00 0.00 37 1008.9
20260503191647 61 267 6.1 19.1 0.00 0.00 0.00 36 1009.0
20260503191146 61 254 8.7 19.1 0.00 0.00 0.00 35 1009.2
20260503190647 62 293 8.7 18.2 0.00 0.00 0.00 34 1009.3
20260503190132 62 270 7.8 16.5 0.00 0.00 0.00 33 1009.0
20260503185635 63 222 5.2 17.4 0.00 0.00 0.00 35 1009.1
20260503185132 62 251 5.2 17.4 0.00 0.00 0.00 36 1009.1
20260503184703 62 297 4.3 17.4 0.00 0.00 0.00 36 1009.2
20260503184139 61 278 7.8 15.6 0.00 0.00 0.00 36 1009.4
20260503183642 61 275 7.0 16.5 0.00 0.00 0.00 37 1009.4
20260503183145 60 242 7.0 17.4 0.00 0.00 0.00 37 1009.6
20260503182646 60 290 6.1 17.4 0.00 0.00 0.00 37 1009.8
20260503182210 59 260 2.6 14.8 0.00 0.00 0.00 38 1009.8
20260503181632 59 236 7.8 13.9 0.00 0.00 0.00 37 1009.9
20260503181150 59 270 7.8 14.8 0.00 0.00 0.00 38 1010.0
20260503180654 59 250 6.1 15.6 0.00 0.00 0.00 38 1010.1
20260503180138 59 320 7.8 15.6 0.00 0.00 0.00 38 1010.1
20260503175642 60 310 4.3 11.3 0.00 0.00 0.00 39 1010.1
20260503175139 60 226 2.6 10.4 0.00 0.00 0.00 39 1010.1
20260503174644 60 278 5.2 8.7 0.00 0.00 0.00 39 1010.2
20260503174139 59 248 4.3 20.0 0.00 0.00 0.00 40 1010.3
20260503173642 59 255 5.2 17.4 0.00 0.00 0.00 40 1010.3
20260503173147 59 262 6.1 12.2 0.00 0.00 0.00 41 1010.4
20260503172647 59 288 4.3 12.2 0.00 0.00 0.00 40 1010.3
20260503172143 59 297 3.5 11.3 0.00 0.00 0.00 41 1010.5
20260503171646 58 205 3.5 11.3 0.00 0.00 0.00 41 1010.6
20260503171146 57 233 7.0 15.6 0.00 0.00 0.00 40 1010.7
20260503170647 57 268 7.8 20.9 0.00 0.00 0.00 41 1010.8
20260503170131 57 194 7.8 20.9 0.00 0.00 0.00 41 1011.0
20260503160148 55 207 3.5 14.8 0.00 0.00 0.00 42 1011.7
20260503150647 57 305 8.7 20.0 0.00 0.00 0.00 38 1011.8
20260503150131 57 296 7.8 14.8 0.00 0.00 0.00 39 1011.7
20260503140132 52 284 2.6 12.2 0.00 0.00 0.00 46 1011.9
20260503131134 48 316 5.2 12.2 0.00 0.00 0.00 51 1012.1
20260503130637 48 252 6.1 13.9 0.00 0.00 0.00 51 1012.1
20260503130156 47 297 6.1 13.9 0.00 0.00 0.00 51 1012.2
20260503120150 43 258 2.6 12.2 0.00 0.00 0.00 54 1012.2
20260503110640 40 251 0.9 3.5 0.00 0.00 0.00 56 1012.2
20260503110146 40 256 1.7 3.5 0.00 0.00 0.00 55 1012.1
20260503100132 39 249 0.9 5.2 0.00 0.00 0.00 55 1012.7
20260503090140 39 260 0.9 4.3 0.00 0.00 0.00 54 1013.1
20260503081148 39 255 1.7 6.1 0.00 0.00 0.00 53 1013.3
20260503080631 39 278 2.6 6.1 0.00 0.00 0.00 54 1013.4
20260503080134 39 269 2.6 6.1 0.00 0.00 0.00 54 1013.5
20260503072632 38 278 1.7 4.3 0.00 0.00 0.00 55 1013.6
20260503072133 38 276 2.6 4.3 0.00 0.00 0.00 56 1013.6
20260503071639 38 306 1.7 5.2 0.00 0.00 0.00 56 1013.5
20260503071139 38 296 1.7 5.2 0.00 0.00 0.00 56 1013.5
20260503070641 38 277 1.7 3.5 0.00 0.00 0.00 56 1013.6
20260503070143 38 259 1.7 6.1 0.00 0.00 0.00 56 1013.6
20260503060144 39 255 0.9 2.6 0.00 0.00 0.00 56 1014.0
20260503054711 39 265 1.7 3.5 0.00 0.00 0.00 57 1014.1
20260503054149 39 278 0.9 3.5 0.00 0.00 0.00 57 1014.1
20260503053630 39 278 1.7 4.3 0.00 0.00 0.00 58 1014.2
20260503053151 39 264 1.7 4.3 0.00 0.00 0.00 58 1014.2
20260503052634 39 267 0.0 2.6 0.00 0.00 0.00 58 1014.2
20260503052135 39 243 0.9 3.5 0.00 0.00 0.00 58 1014.3
20260503051636 39 248 0.9 3.5 0.00 0.00 0.00 58 1014.3
20260503051137 39 252 0.9 1.7 0.00 0.00 0.00 58 1014.3
20260503050640 39 250 0.0 2.6 0.00 0.00 0.00 58 1014.3
20260503050145 39 264 0.9 3.5 0.00 0.00 0.00 58 1014.3
20260503045649 39 262 1.7 3.5 0.00 0.00 0.00 59 1014.4
20260503045148 39 256 0.9 1.7 0.00 0.00 0.00 59 1014.3
20260503044632 39 242 0.0 1.7 0.00 0.00 0.00 60 1014.4
20260503044133 39 252 0.9 3.5 0.00 0.00 0.00 60 1014.4
20260503043635 39 274 0.9 3.5 0.00 0.00 0.00 60 1014.4
20260503043156 39 247 0.9 1.7 0.00 0.00 0.00 60 1014.4
20260503042706 39 251 0.0 1.7 0.00 0.00 0.00 60 1014.4
20260503042210 39 247 0.9 1.7 0.00 0.00 0.00 60 1014.4
20260503041631 39 245 0.9 1.7 0.00 0.00 0.00 60 1014.5
20260503041149 39 264 0.0 1.7 0.00 0.00 0.00 60 1014.5
20260503040631 39 254 0.0 1.7 0.00 0.00 0.00 61 1014.5
20260503040151 39 234 0.0 0.9 0.00 0.00 0.00 61 1014.5
20260503035653 39 243 0.0 0.9 0.00 0.00 0.00 61 1014.5
20260503035149 39 241 0.0 0.9 0.00 0.00 0.00 61 1014.6
20260503034633 39 240 0.0 0.9 0.00 0.00 0.00 61 1014.6
20260503034131 39 237 0.0 0.9 0.00 0.00 0.00 61 1014.6
20260503033635 39 248 0.0 0.0 0.00 0.00 0.00 61 1014.6
20260503033142 39 249 0.0 0.0 0.00 0.00 0.00 61 1014.7
20260503032645 39 249 0.0 0.0 0.00 0.00 0.00 61 1014.7
20260503032145 39 248 0.0 0.0 0.00 0.00 0.00 61 1014.7
20260503031649 39 248 0.0 0.0 0.00 0.00 0.00 61 1014.7
20260503031150 39 248 0.0 0.0 0.00 0.00 0.00 61 1014.8
20260503030632 39 248 0.0 0.0 0.00 0.00 0.00 60 1014.7
20260503030138 39 248 0.0 0.0 0.00 0.00 0.00 60 1014.8
20260503025708 39 248 0.0 0.0 0.00 0.00 0.00 60 1014.8
20260503025142 39 248 0.0 0.0 0.00 0.00 0.00 61 1014.8
20260503024649 39 248 0.0 0.0 0.00 0.00 0.00 61 1014.9
20260503024148 39 248 0.0 0.0 0.00 0.00 0.00 60 1014.9
20260503023632 39 248 0.0 0.0 0.00 0.00 0.00 61 1014.9
20260503023153 39 248 0.0 0.0 0.00 0.00 0.00 61 1015.0
20260503022634 39 248 0.0 0.0 0.00 0.00 0.00 60 1015.0
20260503022200 39 248 0.0 0.0 0.00 0.00 0.00 60 1015.0
20260503021708 39 248 0.0 0.0 0.00 0.00 0.00 60 1015.0
20260503021138 39 248 0.0 0.0 0.00 0.00 0.00 60 1015.0
20260503020643 39 248 0.0 0.0 0.00 0.00 0.00 60 1014.9
20260503020148 39 248 0.0 0.0 0.00 0.00 0.00 61 1014.9
20260503015632 39 248 0.0 0.0 0.00 0.00 0.00 61 1014.9
20260503015133 39 248 0.0 0.0 0.00 0.00 0.00 61 1014.8
20260503014636 39 248 0.0 0.0 0.00 0.00 0.00 62 1014.9
20260503014130 39 248 0.0 0.0 0.00 0.00 0.00 60 1014.8
20260503013634 39 248 0.0 0.0 0.00 0.00 0.00 61 1014.8
20260503013138 39 248 0.0 0.0 0.00 0.00 0.00 60 1014.8
20260503012642 39 248 0.0 0.0 0.00 0.00 0.00 60 1014.7
20260503012141 40 248 0.0 0.0 0.00 0.00 0.00 59 1014.7
20260503011645 40 248 0.0 0.0 0.00 0.00 0.00 59 1014.7
20260503011210 41 248 0.0 0.0 0.00 0.00 0.00 59 1014.7
20260503010634 41 248 0.0 0.0 0.00 0.00 0.00 58 1014.7
20260503010154 42 248 0.0 0.0 0.00 0.00 0.00 57 1014.6
20260503005656 42 248 0.0 0.0 0.00 0.00 0.00 54 1014.6
20260503005131 43 248 0.0 0.0 0.00 0.00 0.00 52 1014.7
20260503004637 43 248 0.0 0.0 0.00 0.00 0.00 52 1014.6
20260503004139 44 248 0.0 0.0 0.00 0.00 0.00 50 1014.6
20260503003641 44 248 0.0 0.0 0.00 0.00 0.00 49 1014.6
20260503003146 44 248 0.0 0.0 0.00 0.00 0.00 49 1014.6
20260503002649 45 248 0.0 0.0 0.00 0.00 0.00 48 1014.5
20260503002148 45 248 0.0 0.0 0.00 0.00 0.00 47 1014.5
20260503001632 45 278 0.0 0.0 0.00 0.00 0.00 46 1014.5
20260503001133 45 278 0.0 1.7 0.00 0.00 0.00 46 1014.5
20260503000703 45 280 0.0 1.7 0.00 0.00 0.00 46 1014.5
20260503000147 46 266 0.0 1.7 0.00 0.00 0.00 45 1014.5
20260502235631 46 266 0.9 1.7 0.00 0.00 0.00 44 1014.6
20260502235144 46 276 0.0 1.7 0.00 0.00 0.00 44 1014.5
20260502234648 47 277 0.9 3.5 0.00 0.00 0.00 44 1014.5
20260502234147 47 294 1.7 4.3 0.00 0.00 0.00 43 1014.6
20260502233649 47 283 1.7 5.2 0.00 0.00 0.00 43 1014.6
20260502233131 47 280 1.7 5.2 0.00 0.00 0.00 44 1014.7
20260502232634 47 266 1.7 5.2 0.00 0.00 0.00 42 1014.6
20260502231649 47 302 2.6 7.0 0.00 0.00 0.00 43 1014.6
20260502231148 47 284 1.7 7.0 0.00 0.00 0.00 43 1014.7
20260502230631 47 308 1.7 5.2 0.00 0.00 0.00 43 1014.7
20260502230148 47 304 2.6 5.2 0.00 0.00 0.00 42 1014.7
20260502225631 47 243 1.7 5.2 0.00 0.00 0.00 43 1014.6
20260502225147 47 304 0.9 5.2 0.00 0.00 0.00 45 1014.6
20260502224650 47 278 1.7 6.1 0.00 0.00 0.00 44 1014.6
20260502224150 47 302 0.9 6.1 0.00 0.00 0.00 42 1014.7
20260502223633 47 252 0.9 6.1 0.00 0.00 0.00 43 1014.7
20260502223137 47 319 2.6 7.0 0.00 0.00 0.00 44 1014.7
20260502222640 46 276 2.6 10.4 0.00 0.00 0.00 44 1014.7
20260502222139 47 299 2.6 6.1 0.00 0.00 0.00 44 1014.7
20260502221642 46 307 1.7 6.1 0.00 0.00 0.00 44 1014.7
20260502221141 47 216 1.7 7.8 0.00 0.00 0.00 45 1014.7
20260502220645 47 330 4.3 7.8 0.00 0.00 0.00 43 1014.6
20260502220147 47 293 0.9 6.1 0.00 0.00 0.00 42 1014.6
20260502215649 47 271 0.9 6.1 0.00 0.00 0.00 42 1014.6
20260502215149 46 343 1.7 6.1 0.00 0.00 0.00 43 1014.7
20260502214652 46 289 0.9 10.4 0.00 0.00 0.00 45 1014.7
20260502214130 46 283 3.5 10.4 0.00 0.00 0.00 44 1014.6
20260502213634 46 307 1.7 7.0 0.00 0.00 0.00 45 1014.7
20260502213137 46 279 3.5 6.1 0.00 0.00 0.00 44 1014.6
20260502212637 46 248 1.7 7.8 0.00 0.00 0.00 44 1014.6
20260502212138 46 302 4.3 7.8 0.00 0.00 0.00 42 1014.7
20260502211642 47 326 4.3 7.8 0.00 0.00 0.00 42 1014.7
20260502211143 47 262 1.7 13.0 0.00 0.00 0.00 43 1014.6
20260502210646 46 295 6.1 13.0 0.00 0.00 0.00 42 1014.8
20260502210149 46 304 5.2 11.3 0.00 0.00 0.00 43 1014.8
20260502205632 46 279 2.6 10.4 0.00 0.00 0.00 43 1014.8
20260502205132 46 284 5.2 10.4 0.00 0.00 0.00 43 1014.8
20260502204634 46 281 3.5 12.2 0.00 0.00 0.00 43 1014.8
20260502204154 46 302 4.3 12.2 0.00 0.00 0.00 43 1014.7
20260502203657 46 297 3.5 8.7 0.00 0.00 0.00 43 1014.8
20260502203156 46 276 5.2 10.4 0.00 0.00 0.00 43 1014.9
20260502202639 46 300 5.2 11.3 0.00 0.00 0.00 44 1015.0
20260502202205 46 295 4.3 7.8 0.00 0.00 0.00 43 1015.0
20260502201646 45 310 3.5 10.4 0.00 0.00 0.00 44 1015.1
20260502201209 45 255 5.2 11.3 0.00 0.00 0.00 43 1015.1
20260502200650 46 300 2.6 11.3 0.00 0.00 0.00 44 1015.2
20260502200147 46 319 7.0 11.3 0.00 0.00 0.00 42 1015.2
20260502195650 46 15 2.6 7.8 0.00 0.00 0.00 42 1015.3
20260502195147 45 294 1.7 7.8 0.00 0.00 0.00 43 1015.3
20260502194650 45 313 3.5 7.8 0.00 0.00 0.00 44 1015.4
20260502194148 45 8 3.5 10.4 0.00 0.00 0.00 43 1015.5
20260502193633 45 356 4.3 8.7 0.00 0.00 0.00 43 1015.5